Location: Brachbach
(49.1847°N, 9.7240°E)
Time: 07:28:41
(UTC+00:00)

UKube-1 - Visible Passes

Search period start: 11 March 2026 00:00
Search period end: 21 March 2026 00:00
Orbit: 529 x 533 km, 98.4° (Epoch: 10 March)

Date Brightness Start Highest point End Pass type
(mag) Time Alt. Az. Time Alt. Az. Time Alt. Az.
11 Mar ? 03:53:07 10° NE 03:55:57 20° E 03:58:47 10° SE visible
12 Mar ? 03:43:15 10° NE 03:45:34 15° E 03:47:53 10° SE visible
13 Mar ? 03:33:41 10° ENE 03:35:10 12° E 03:36:38 10° ESE visible
13 Mar ? 05:06:02 10° N 05:09:52 69° WNW 05:13:41 10° SSW visible
14 Mar ? 04:55:42 10° NNE 04:59:34 90° N 05:03:24 10° SSW visible
15 Mar ? 04:45:22 10° NNE 04:49:13 69° ESE 04:53:02 10° S visible
16 Mar ? 04:35:03 10° NNE 04:38:50 51° ESE 04:42:34 10° S visible
17 Mar ? 04:24:45 10° NNE 04:28:24 39° E 04:32:00 10° S visible
18 Mar ? 04:14:30 10° NE 04:17:55 30° E 04:21:20 10° SSE visible
19 Mar ? 04:04:17 10° NE 04:07:25 23° E 04:10:31 10° SSE visible
20 Mar ? 03:54:10 10° NE 03:56:52 18° E 03:59:34 10° SE visible
